Location: Calvatone
(45.1167°N, 10.4333°E)
Time: 16:51:18
(UTC+00:00)

Cosmos 1655 Rocket - Pass Details

Date: 28 January 2023
Orbit: 970 x 1006 km, 83.0° (Epoch: 31 March)

Event Time Altitude Azimuth Distance (km) Brightness Sun altitude
Rises 18:02:06 0° 349° (NNW) 3,707 7.1 -18.1°
Reaches altitude 10° 18:04:39 10° 347° (NNW) 2,749 6.4 -18.5°
Maximum altitude 18:10:52 66° 267° (W) 1,065 4.4 -19.6°
Drops below altitude 10° 18:17:00 10° 186° (S) 2,711 6.5 -20.7°
Sets 18:19:30 0° 184° (S) 3,651 7.1 -21.1°
